Location: Newark
(13.6797°N, 8.5297°E)
Time: 05:21:53
(UTC+00:00)

Transit 4A - All Passes

Search period start: 23 January 2020 00:00
Search period end: 02 February 2020 00:00
Orbit: 871 x 973 km, 66.8° (Epoch: 22 January)

Date Brightness Start Highest point End Pass type
(mag) Time Alt. Az. Time Alt. Az. Time Alt. Az.
23 Jan - 03:56:14 10° SE 03:58:21 12° ESE 04:00:28 10° E visible
23 Jan - 05:38:14 10° SSW 05:44:18 58° WNW 05:50:13 10° N daylight
23 Jan - 14:59:51 10° NE 15:01:29 11° ENE 15:03:06 10° E daylight
23 Jan - 16:42:06 10° NNW 16:47:51 60° WSW 16:53:44 10° S daylight
24 Jan - 04:03:03 10° SSE 04:07:35 21° ESE 04:12:02 10° ENE visible
24 Jan - 05:48:06 10° SW 05:53:38 34° WNW 05:59:03 10° N daylight
24 Jan - 15:06:46 10° NNE 15:10:56 20° ENE 15:15:08 10° ESE daylight
24 Jan - 16:51:50 10° NW 16:57:06 35° WSW 17:02:28 10° S daylight
25 Jan - 04:11:14 10° S 04:16:49 36° ESE 04:22:17 10° NE visible
25 Jan - 05:58:34 10° WSW 06:03:01 21° WNW 06:07:23 10° NNW daylight
25 Jan - 15:15:05 10° N 15:20:18 33° ENE 15:25:37 10° SE daylight
25 Jan - 17:02:08 10° WNW 17:06:19 20° WSW 17:10:36 10° SSW daylight
26 Jan - 04:19:58 10° S 04:26:05 61° ESE 04:32:01 10° NNE visible
26 Jan - 06:10:22 10° W 06:12:28 12° WNW 06:14:32 10° NW daylight
26 Jan - 15:23:53 10° N 15:29:38 57° ENE 15:35:29 10° SSE daylight
26 Jan - 17:13:58 10° W 17:15:33 11° WSW 17:17:08 10° WSW daylight
27 Jan - 04:29:10 10° SSW 04:35:21 81° WNW 04:41:23 10° NNE visible
27 Jan - 15:33:02 10° NNW 15:38:55 85° WSW 15:44:56 10° SSE daylight
28 Jan - 02:55:24 10° SE 02:58:41 15° ESE 03:01:55 10° ENE visible
28 Jan - 04:38:45 10° SW 04:44:39 48° WNW 04:50:25 10° N visible
28 Jan - 13:58:57 10° NNE 14:01:52 14° ENE 14:04:49 10° E daylight
28 Jan - 15:42:32 10° NW 15:48:11 49° WSW 15:53:56 10° S daylight
29 Jan - 03:02:55 10° SSE 03:07:54 26° ESE 03:12:47 10° NE visible
29 Jan - 04:48:48 10° SW 04:54:00 28° WNW 04:59:05 10° N visible
29 Jan - 14:06:40 10° NNE 14:11:18 24° ENE 14:16:00 10° ESE daylight
29 Jan - 15:52:27 10° NW 15:57:25 29° WSW 16:02:30 10° SSW daylight
30 Jan - 03:11:20 10° S 03:17:09 43° ESE 03:22:49 10° NE visible
30 Jan - 04:59:35 10° WSW 05:03:24 17° WNW 05:07:10 10° NNW visible
30 Jan - 14:15:11 10° N 14:20:39 40° ENE 14:26:14 10° SE daylight
30 Jan - 16:03:03 10° WNW 16:06:38 17° WSW 16:10:17 10° SW daylight
31 Jan - 03:20:15 10° SSW 03:26:25 74° ESE 03:32:24 10° NNE visible
31 Jan - 14:24:08 10° NNW 14:29:58 70° ENE 14:35:56 10° SSE daylight
01 Feb - 03:29:34 10° SSW 03:35:42 67° WNW 03:41:39 10° NNE visible
01 Feb - 14:33:24 10° NNW 14:39:14 70° WSW 14:45:13 10° SSE daylight
